Tracking 29932 objects as of 3-Dec-2024
HD Live streaming from Space Station
objects crossing your sky now

STARLINK-31941

Track STARLINK-31941 now!
10-day predictions
STARLINK-31941 is classified as:


NORAD ID: 59866
Int'l Code: 2024-098J
Perigee: 397.6 km
Apogee: 399.3 km
Inclination: 43.0 °
Period: 92.4 minutes
Semi major axis: 6769 km
RCS: Unknown
Launch date: May 24, 2024
Source: United States (US)
Launch site: AIR FORCE EASTERN TEST RANGE (AFETR)
Your satellite tracking list
Your tracking list is empty




NASA's NSSDC Master Catalog

Two Line Element Set (TLE):
1 59866U 24098J   24338.58335648 -.00715789  00000-0 -98782-2 0  9994
2 59866  42.9995   4.6095 0001249 280.5604  79.8986 15.58727827  5935
Source of the keplerian elements: AFSPC